FW6992 Weather Reports


Display with metric or nautical units.
time (UTC)temp
F
wind
direction
speed
MPH
gust
MPH
rain 1hr
in
rain 24hr
in
rain mn
in
humidity
%
barometer
mb
20260904190554 97 95 1.0 1.0 0.00 0.00 0.00 47 1015.5
20260904190051 97 95 1.0 1.0 0.00 0.00 0.00 47 1015.7
20260904185547 97 95 1.0 1.0 0.00 0.00 0.00 47 1015.6
20260904185042 97 95 1.0 1.0 0.00 0.00 0.00 47 1015.8
20260904184542 97 95 1.0 1.0 0.00 0.00 0.00 47 1015.8
20260904184037 97 95 1.0 1.0 0.00 0.00 0.00 47 1015.8
20260904183532 98 225 2.0 3.0 0.00 0.00 0.00 42 1016.3
20260904183027 98 225 2.0 3.0 0.00 0.00 0.00 42 1016.4
20260904182523 98 225 2.0 3.0 0.00 0.00 0.00 42 1016.2
20260904182023 98 225 2.0 3.0 0.00 0.00 0.00 42 1016.3
20260904181519 98 225 2.0 3.0 0.00 0.00 0.00 42 1016.5
20260904181018 98 225 2.0 3.0 0.00 0.00 0.00 42 1016.5
20260904180513 98 225 2.0 3.0 0.00 0.00 0.00 42 1016.8
20260904180009 98 100 0.0 0.0 0.00 0.00 0.00 43 1016.8
20260904175508 98 289 1.0 2.0 0.00 0.00 0.00 46 1017.1
20260904175001 96 95 2.0 2.0 0.00 0.00 0.00 47 1016.9
20260904174456 96 95 2.0 2.0 0.00 0.00 0.00 47 1017.0
20260904173953 96 95 2.0 2.0 0.00 0.00 0.00 47 1017.3
20260904173450 96 95 2.0 2.0 0.00 0.00 0.00 47 1017.0
20260904172943 96 95 2.0 2.0 0.00 0.00 0.00 47 1017.3
20260904172438 96 114 1.0 1.0 0.00 0.00 0.00 45 1017.4
20260904171938 96 87 2.0 2.0 0.00 0.00 0.00 43 1017.5
20260904171433 0 0.0 0.0 0.00 0.00 0.00 1017.5
20260904170929 0 0.0 0.0 0.00 0.00 0.00 1017.4
20260904170424 0 0.0 0.0 0.00 0.00 0.00 1017.7
20260904165920 0 0.0 0.0 0.00 0.00 0.00 1017.5
20260904165419 0 0.0 0.0 0.00 0.00 0.00 1017.2
20260904164918 0 0.0 0.0 0.00 0.00 0.00 1017.7
20260904164418 0 0.0 0.0 0.00 0.00 0.00 1017.6
20260904163909 93 342 0.0 0.0 0.00 0.00 0.00 52 1017.5
20260904163409 93 342 0.0 0.0 0.00 0.00 0.00 52 1017.9
20260904162908 93 342 0.0 0.0 0.00 0.00 0.00 52 1018.0
20260904162404 93 342 0.0 0.0 0.00 0.00 0.00 52 1017.9
20260904161859 93 342 0.0 0.0 0.00 0.00 0.00 52 1017.8
20260904161354 93 342 0.0 0.0 0.00 0.00 0.00 52 1017.9
20260904160849 93 342 0.0 0.0 0.00 0.00 0.00 52 1017.8
20260904160344 93 342 0.0 0.0 0.00 0.00 0.00 52 1018.2
20260904155839 93 342 0.0 0.0 0.00 0.00 0.00 52 1018.0
20260904155334 93 342 0.0 0.0 0.00 0.00 0.00 52 1017.8
20260904154832 93 342 0.0 0.0 0.00 0.00 0.00 52 1018.1
20260904154327 93 342 0.0 0.0 0.00 0.00 0.00 52 1018.1
20260904153823 93 175 0.0 1.0 0.00 0.00 0.00 50 1018.1
20260904153318 93 175 0.0 1.0 0.00 0.00 0.00 50 1018.3
20260904152814 94 267 0.0 1.0 0.00 0.00 0.00 48 1018.4
20260904152309 94 267 0.0 1.0 0.00 0.00 0.00 48 1018.1
20260904151804 94 83 0.0 0.0 0.00 0.00 0.00 51 1018.1
20260904151303 88 85 2.0 2.0 0.00 0.00 0.00 57 1018.2
20260904150759 88 85 2.0 2.0 0.00 0.00 0.00 57 1018.0
20260904150254 88 85 2.0 2.0 0.00 0.00 0.00 57 1018.2
20260904145752 88 85 2.0 2.0 0.00 0.00 0.00 57 1018.0
20260904145248 88 85 2.0 2.0 0.00 0.00 0.00 57 1018.2
20260904144743 88 85 2.0 2.0 0.00 0.00 0.00 57 1018.0
20260904144239 88 201 1.0 1.0 0.00 0.00 0.00 59 1018.0
20260904143734 88 354 0.0 1.0 0.00 0.00 0.00 58 1017.9
20260904143231 88 241 0.0 0.0 0.00 0.00 0.00 57 1017.9
20260904142727 88 71 0.0 0.0 0.00 0.00 0.00 59 1018.0
20260904142223 88 84 0.0 0.0 0.00 0.00 0.00 58 1017.9
20260904141722 87 222 1.0 1.0 0.00 0.00 0.00 59 1017.9
20260904141218 87 250 0.0 0.0 0.00 0.00 0.00 59 1018.0
20260904140713 87 142 0.0 0.0 0.00 0.00 0.00 59 1017.9
20260904140209 87 290 0.0 0.0 0.00 0.00 0.00 60 1018.0
20260904135707 87 71 0.0 1.0 0.00 0.00 0.00 62 1018.2
20260904135203 87 248 1.0 2.0 0.00 0.00 0.00 59 1018.2
20260904134659 87 251 0.0 1.0 0.00 0.00 0.00 60 1018.0
20260904134158 87 251 0.0 0.0 0.00 0.00 0.00 60 1017.9
20260904133653 87 251 0.0 2.0 0.00 0.00 0.00 61 1018.2
20260904133149 87 71 0.0 1.0 0.00 0.00 0.00 66 1017.8
20260904132648 86 330 0.0 0.0 0.00 0.00 0.00 66 1018.1
20260904132143 86 305 0.0 0.0 0.00 0.00 0.00 65 1018.2
20260904131643 86 305 0.0 0.0 0.00 0.00 0.00 65 1018.1
20260904131139 86 251 0.0 1.0 0.00 0.00 0.00 67 1018.1
20260904130638 86 282 1.0 1.0 0.00 0.00 0.00 67 1017.9
20260904130133 86 282 1.0 1.0 0.00 0.00 0.00 67 1017.8
20260904125629 86 139 0.0 0.0 0.00 0.00 0.00 64 1017.7
20260904125124 86 128 1.0 1.0 0.00 0.00 0.00 65 1017.8
20260904124619 80 304 0.0 2.0 0.00 0.00 0.00 81 1017.7
20260904124115 80 304 0.0 2.0 0.00 0.00 0.00 81 1017.9
20260904123615 80 348 0.0 2.0 0.00 0.00 0.00 81 1017.9
20260904123110 80 317 0.0 2.0 0.00 0.00 0.00 82 1017.8
20260904122605 78 143 0.0 0.0 0.00 0.00 0.00 82 1017.7
20260904122100 78 151 0.0 0.0 0.00 0.00 0.00 82 1017.8
20260904121555 78 135 0.0 1.0 0.00 0.00 0.00 83 1017.7
20260904121051 77 201 0.0 0.0 0.00 0.00 0.00 85 1017.6
20260904120548 77 160 0.0 1.0 0.00 0.00 0.00 85 1017.7
20260904120043 77 290 0.0 1.0 0.00 0.00 0.00 86 1017.7
20260904115538 76 290 0.0 0.0 0.00 0.00 0.00 86 1017.8
20260904115033 76 290 0.0 0.0 0.00 0.00 0.00 88 1017.8
20260904114527 75 238 0.0 0.0 0.00 0.00 0.00 89 1017.8
20260904114022 75 330 0.0 0.0 0.00 0.00 0.00 90 1017.8
20260904113522 74 245 0.0 1.0 0.00 0.00 0.00 91 1017.5
20260904113021 74 290 0.0 1.0 0.00 0.00 0.00 91 1017.7
20260904112516 74 238 0.0 0.0 0.00 0.00 0.00 91 1017.8
20260904112012 73 263 0.0 0.0 0.00 0.00 0.00 91 1017.7
20260904111508 73 150 0.0 0.0 0.00 0.00 0.00 91 1017.5
20260904111004 73 234 0.0 0.0 0.00 0.00 0.00 91 1017.8
20260904110503 73 263 0.0 1.0 0.00 0.00 0.00 91 1017.6
20260904105953 73 251 0.0 1.0 0.00 0.00 0.00 91 1017.6
20260904105452 73 138 0.0 1.0 0.00 0.00 0.00 91 1017.7
20260904104948 73 308 0.0 0.0 0.00 0.00 0.00 91 1017.7
20260904104448 73 217 1.0 1.0 0.00 0.00 0.00 91 1017.6
20260904103939 73 251 0.0 0.0 0.00 0.00 0.00 91 1017.6
20260904103434 73 335 0.0 1.0 0.00 0.00 0.00 91 1017.6
20260904102930 73 290 0.0 0.0 0.00 0.00 0.00 91 1017.6
20260904102425 73 233 0.0 0.0 0.00 0.00 0.00 90 1017.6
20260904101920 73 311 0.0 1.0 0.00 0.00 0.00 90 1017.5
20260904101417 73 181 0.0 1.0 0.00 0.00 0.00 90 1017.5
20260904100907 74 243 0.0 1.0 0.00 0.00 0.00 90 1017.6
20260904100403 74 251 0.0 0.0 0.00 0.00 0.00 90 1017.5
20260904095856 74 58 0.0 1.0 0.00 0.00 0.00 90 1017.4
20260904095351 74 308 0.0 1.0 0.00 0.00 0.00 90 1017.4
20260904094847 74 140 0.0 2.0 0.00 0.00 0.00 90 1017.4
20260904094342 74 215 0.0 1.0 0.00 0.00 0.00 90 1017.3
20260904093838 74 87 0.0 1.0 0.00 0.00 0.00 90 1017.3
20260904093338 74 104 0.0 1.0 0.00 0.00 0.00 90 1017.7
20260904092833 74 209 0.0 1.0 0.00 0.00 0.00 90 1017.5
20260904092330 74 249 0.0 1.0 0.00 0.00 0.00 89 1017.8
20260904091826 74 110 0.0 1.0 0.00 0.00 0.00 89 1017.8
20260904091321 74 238 0.0 1.0 0.00 0.00 0.00 89 1017.8
20260904090815 75 245 0.0 0.0 0.00 0.00 0.00 89 1017.8
20260904090312 75 347 0.0 0.0 0.00 0.00 0.00 88 1017.9
20260904085806 75 290 0.0 0.0 0.00 0.00 0.00 88 1018.0
20260904085256 75 150 0.0 0.0 0.00 0.00 0.00 88 1017.8
20260904084750 75 183 0.0 0.0 0.00 0.00 0.00 87 1017.7
20260904084246 75 137 0.0 1.0 0.00 0.00 0.00 87 1017.6
20260904083742 75 182 0.0 0.0 0.00 0.00 0.00 86 1017.6
20260904083239 75 48 0.0 1.0 0.00 0.00 0.00 87 1018.0
20260904082738 75 330 0.0 0.0 0.00 0.00 0.00 87 1017.7
20260904082233 75 233 0.0 1.0 0.00 0.00 0.00 87 1017.5
20260904081723 75 233 0.0 1.0 0.00 0.00 0.00 86 1017.6
20260904081219 75 357 0.0 0.0 0.00 0.00 0.00 86 1017.7
20260904080714 75 347 0.0 0.0 0.00 0.00 0.00 86 1017.5
20260904080210 75 175 0.0 0.0 0.00 0.00 0.00 85 1017.2
20260904075706 76 245 0.0 0.0 0.00 0.00 0.00 86 1017.5
20260904075201 76 185 0.0 0.0 0.00 0.00 0.00 86 1017.5
20260904074659 76 185 0.0 0.0 0.00 0.00 0.00 86 1017.4
20260904074154 76 185 0.0 0.0 0.00 0.00 0.00 85 1017.4
20260904073650 76 185 0.0 0.0 0.00 0.00 0.00 85 1017.1
20260904073146 76 185 0.0 0.0 0.00 0.00 0.00 84 1017.4
20260904072642 76 233 0.0 0.0 0.00 0.00 0.00 84 1017.2
20260904072136 76 233 0.0 0.0 0.00 0.00 0.00 84 1017.0
20260904071632 76 226 0.0 0.0 0.00 0.00 0.00 84 1017.2
20260904071126 76 226 0.0 0.0 0.00 0.00 0.00 84 1017.1
20260904070625 76 263 0.0 0.0 0.00 0.00 0.00 83 1016.9
20260904070120 76 263 0.0 0.0 0.00 0.00 0.00 84 1017.0
20260904065615 76 263 0.0 0.0 0.00 0.00 0.00 83 1016.9
20260904065112 76 263 0.0 0.0 0.00 0.00 0.00 84 1017.0
20260904064607 76 263 0.0 0.0 0.00 0.00 0.00 84 1016.9
20260904064107 76 263 0.0 0.0 0.00 0.00 0.00 84 1016.9
20260904063603 76 263 0.0 0.0 0.00 0.00 0.00 85 1016.8
20260904063104 76 251 0.0 0.0 0.00 0.00 0.00 85 1016.9
20260904062600 76 238 0.0 0.0 0.00 0.00 0.00 86 1017.0
20260904062055 76 318 0.0 0.0 0.00 0.00 0.00 86 1016.9
20260904061551 76 318 0.0 0.0 0.00 0.00 0.00 85 1016.7
20260904061047 76 238 0.0 0.0 0.00 0.00 0.00 85 1017.0
20260904060543 77 163 0.0 1.0 0.00 0.00 0.00 84 1016.7
20260904060040 76 314 0.0 0.0 0.00 0.00 0.00 85 1016.9
20260904055539 76 305 0.0 0.0 0.00 0.00 0.00 85 1017.0
20260904055035 76 305 0.0 0.0 0.00 0.00 0.00 85 1017.1
20260904054531 76 305 0.0 0.0 0.00 0.00 0.00 85 1017.0
20260904054026 76 305 0.0 0.0 0.00 0.00 0.00 85 1017.0
20260904053526 76 4 0.0 0.0 0.00 0.00 0.00 85 1017.5
20260904053021 77 330 0.0 0.0 0.00 0.00 0.00 85 1017.7
20260904052517 77 256 0.0 0.0 0.00 0.00 0.00 84 1018.1
20260904052013 77 216 0.0 0.0 0.00 0.00 0.00 82 1018.5
20260904051510 77 216 0.0 0.0 0.00 0.00 0.00 82 1018.8
20260904051008 77 216 0.0 0.0 0.00 0.00 0.00 82 1018.8
20260904050505 77 228 4.0 4.0 0.00 0.00 0.00 82 1019.2
20260904050000 77 3 0.0 2.0 0.00 0.00 0.00 82 1019.1
20260904045456 77 251 0.0 0.0 0.00 0.00 0.00 81 1018.6
20260904044950 77 251 0.0 0.0 0.00 0.00 0.00 81 1018.6
20260904044446 77 251 0.0 0.0 0.00 0.00 0.00 81 1018.4
20260904043942 77 251 0.0 0.0 0.00 0.00 0.00 81 1018.5
20260904043439 77 320 0.0 0.0 0.00 0.00 0.00 81 1018.5
20260904042934 77 320 0.0 0.0 0.00 0.00 0.00 81 1018.6
20260904042430 77 320 0.0 0.0 0.00 0.00 0.00 82 1018.8
20260904041925 77 320 0.0 0.0 0.00 0.00 0.00 82 1018.6
20260904041421 77 320 0.0 0.0 0.00 0.00 0.00 81 1018.6
20260904040917 77 320 0.0 0.0 0.00 0.00 0.00 81 1018.5
20260904040412 77 226 0.0 0.0 0.00 0.00 0.00 80 1018.7
20260904035908 77 226 0.0 0.0 0.00 0.00 0.00 80 1018.7
20260904035403 77 226 0.0 0.0 0.00 0.00 0.00 80 1018.7
20260904034903 77 226 0.0 0.0 0.00 0.00 0.00 79 1018.9
20260904034353 78 226 0.0 0.0 0.00 0.00 0.00 78 1019.1
20260904033849 78 226 0.0 0.0 0.00 0.00 0.00 78 1018.9
20260904033344 78 226 0.0 0.0 0.00 0.00 0.00 77 1019.0
20260904032840 78 195 0.0 0.0 0.00 0.00 0.00 77 1018.9
20260904032340 78 305 0.0 0.0 0.00 0.00 0.00 76 1019.0
20260904031834 78 330 0.0 0.0 0.00 0.00 0.00 77 1018.7
20260904031329 78 138 0.0 0.0 0.00 0.00 0.00 77 1018.4
20260904030825 78 318 0.0 0.0 0.00 0.00 0.00 76 1018.3
20260904030321 78 245 0.0 0.0 0.00 0.00 0.00 77 1018.5
20260904025817 78 276 0.0 0.0 0.00 0.00 0.00 77 1018.5
20260904025312 78 276 0.0 0.0 0.00 0.00 0.00 76 1018.5
20260904024806 78 276 0.0 0.0 0.00 0.00 0.00 76 1018.6
20260904024301 78 276 0.0 0.0 0.00 0.00 0.00 76 1018.5
20260904023758 78 276 0.0 0.0 0.00 0.00 0.00 76 1018.6
20260904023254 79 290 0.0 1.0 0.00 0.00 0.00 75 1018.6
20260904022752 79 251 0.0 0.0 0.00 0.00 0.00 75 1018.7
20260904022250 79 251 0.0 0.0 0.00 0.00 0.00 74 1018.5
20260904021747 79 251 0.0 0.0 0.00 0.00 0.00 73 1018.8
20260904021247 79 251 0.0 0.0 0.00 0.00 0.00 73 1018.7
20260904020742 79 343 0.0 0.0 0.00 0.00 0.00 72 1018.6
20260904020242 79 256 0.0 0.0 0.00 0.00 0.00 74 1018.5
20260904015740 80 256 0.0 0.0 0.00 0.00 0.00 74 1018.4
20260904015236 80 256 0.0 0.0 0.00 0.00 0.00 72 1018.6
20260904014734 80 256 0.0 0.0 0.00 0.00 0.00 73 1018.3
20260904014230 80 185 0.0 0.0 0.00 0.00 0.00 72 1018.3
20260904013726 80 185 0.0 0.0 0.00 0.00 0.00 73 1018.3
20260904013222 80 185 0.0 0.0 0.00 0.00 0.00 73 1017.9
20260904012717 79 185 0.0 0.0 0.00 0.00 0.00 73 1018.1
20260904012216 79 185 0.0 0.0 0.00 0.00 0.00 74 1018.1
20260904011716 79 185 0.0 0.0 0.00 0.00 0.00 73 1018.4
20260904011212 79 185 0.0 0.0 0.00 0.00 0.00 74 1018.4
20260904010706 79 185 0.0 0.0 0.00 0.00 0.00 73 1018.6
20260904010203 80 185 0.0 0.0 0.00 0.00 0.00 72 1018.7
20260904005658 80 185 0.0 0.0 0.00 0.00 0.00 72 1018.7
20260904005154 80 185 0.0 0.0 0.00 0.00 0.00 72 1018.7
20260904004650 80 185 0.0 0.0 0.00 0.00 0.00 72 1018.9
20260904004149 80 185 0.0 0.0 0.00 0.00 0.00 72 1018.9
20260904003645 80 185 0.0 0.0 0.00 0.00 0.00 72 1018.8
20260904003141 81 185 0.0 0.0 0.00 0.00 0.00 72 1018.8
20260904002637 81 168 0.0 0.0 0.00 0.00 0.00 73 1018.6
20260904002132 81 168 0.0 0.0 0.00 0.00 0.00 73 1018.7
20260904001627 81 168 0.0 0.0 0.00 0.00 0.00 73 1018.8
20260904001126 82 343 0.0 0.0 0.00 0.00 0.00 71 1018.7
20260904000621 82 343 0.0 0.0 0.00 0.00 0.00 71 1018.6
20260904000117 82 343 0.0 0.0 0.00 0.00 0.00 71 1018.6
20260903235616 82 343 0.0 0.0 0.00 0.00 0.00 71 1018.6
20260903235113 82 343 0.0 0.0 0.00 0.00 0.00 71 1018.4
20260903234607 82 343 0.0 0.0 0.00 0.00 0.00 71 1018.2
20260903234103 82 343 0.0 0.0 0.00 0.00 0.00 71 1018.1
20260903233559 82 343 0.0 0.0 0.00 0.00 0.00 71 1017.7
20260903233054 82 343 0.0 0.0 0.00 0.00 0.00 70 1018.0
20260903232544 83 251 0.0 0.0 0.00 0.00 0.00 69 1018.0
20260903232039 83 251 0.0 0.0 0.00 0.00 0.00 69 1017.7
20260903231533 83 251 0.0 0.0 0.00 0.00 0.00 69 1017.9
20260903231027 83 251 0.0 0.0 0.00 0.00 0.00 69 1017.9
20260903230524 83 251 0.0 0.0 0.00 0.00 0.00 69 1017.8
20260903230022 84 185 0.0 0.0 0.00 0.00 0.00 68 1017.7
20260903225520 84 185 0.0 0.0 0.00 0.00 0.00 66 1017.7
20260903225016 84 185 0.0 0.0 0.00 0.00 0.00 66 1017.9
20260903224512 85 354 0.0 0.0 0.00 0.00 0.00 66 1017.9
20260903224008 85 354 0.0 0.0 0.00 0.00 0.00 66 1017.7
20260903223507 85 354 0.0 0.0 0.00 0.00 0.00 66 1017.9
20260903223007 85 354 0.0 0.0 0.00 0.00 0.00 65 1017.6
20260903222501 85 354 0.0 0.0 0.00 0.00 0.00 67 1017.6
20260903222000 85 341 0.0 0.0 0.00 0.00 0.00 66 1017.6
20260903221455 86 354 0.0 0.0 0.00 0.00 0.00 65 1017.6
20260903220952 86 354 0.0 0.0 0.00 0.00 0.00 65 1017.7
20260903220447 86 298 0.0 0.0 0.00 0.00 0.00 64 1017.3
20260903215944 86 263 0.0 0.0 0.00 0.00 0.00 64 1017.7
20260903215441 86 251 0.0 0.0 0.00 0.00 0.00 64 1017.8
20260903214939 86 226 0.0 0.0 0.00 0.00 0.00 63 1017.8
20260903214436 86 206 0.0 2.0 0.00 0.00 0.00 65 1017.6
20260903213935 86 131 0.0 1.0 0.00 0.00 0.00 62 1017.8
20260903213430 85 276 0.0 0.0 0.00 0.00 0.00 66 1018.0
20260903212926 85 58 0.0 0.0 0.00 0.00 0.00 65 1018.1
20260903212422 85 305 0.0 0.0 0.00 0.00 0.00 66 1017.9
20260903211921 85 276 0.0 0.0 0.00 0.00 0.00 65 1017.9
20260903211417 86 130 1.0 1.0 0.00 0.00 0.00 64 1018.2
20260903210914 87 6 0.0 0.0 0.00 0.00 0.00 62 1018.0
20260903210413 88 330 1.0 3.0 0.00 0.00 0.00 63 1018.3
20260903205908 89 239 0.0 0.0 0.00 0.00 0.00 65 1018.1
20260903205408 91 138 0.0 0.0 0.00 0.00 0.00 60 1018.3
20260903204902 91 138 0.0 0.0 0.00 0.00 0.00 60 1018.4
20260903204359 92 128 0.0 0.0 0.00 0.00 0.00 58 1018.3
20260903203854 91 181 0.0 0.0 0.00 0.00 0.00 61 1018.2
20260903203350 91 223 0.0 0.0 0.00 0.00 0.00 60 1018.4
20260903202848 90 354 0.0 0.0 0.00 0.00 0.00 62 1018.3
20260903202345 90 216 0.0 0.0 0.00 0.00 0.00 58 1018.4
20260903201845 91 263 0.0 0.0 0.00 0.00 0.00 58 1018.4
20260903201340 91 263 0.0 0.0 0.00 0.00 0.00 58 1018.7
20260903200839 91 263 0.0 0.0 0.00 0.00 0.00 58 1018.6
20260903200334 91 263 0.0 0.0 0.00 0.00 0.00 58 1018.5
20260903195829 93 168 0.0 0.0 0.00 0.00 0.00 52 1018.6
20260903195326 93 168 0.0 0.0 0.00 0.00 0.00 52 1018.4
20260903194820 93 168 0.0 0.0 0.00 0.00 0.00 52 1018.3
20260903194316 93 168 0.0 0.0 0.00 0.00 0.00 52 1018.6
20260903193812 93 168 0.0 0.0 0.00 0.00 0.00 52 1018.6
20260903193307 93 168 0.0 0.0 0.00 0.00 0.00 52 1018.1
20260903192802 93 168 0.0 0.0 0.00 0.00 0.00 52 1018.8
20260903192258 94 343 0.0 0.0 0.00 0.00 0.00 50 1018.7
20260903191754 98 248 0.0 1.0 0.00 0.00 0.00 46 1018.8
20260903191250 98 248 0.0 1.0 0.00 0.00 0.00 46 1019.0